contact:dominique.lefevre@mio.osupytheas.fr, maurice.libes@osupytheas.fr, didier.mallarino@osupytheas.fr
Project:EMSO http://www.emso-fr.org/EMSO-France
Depth: 2436.0 m
Title:EMSO Ligure Ouest : Data MII capteur MICROCAT
DateTime_Computer,Latitude,Longitude,Temperature,Conductivity,Pressure,DateTime_Instrument
DateTime_Computer,Latitude,Longitude,degC,S m-1,dbar,DateTime_Instrument
2021-08-24T00:01:30Z,42.805,6.029,13.3054,4.60041,2470.297,2021-8-24T02:02:49Z
2021-08-24T00:04:33Z,42.805,6.029,13.3039,4.60038,2470.297,2021-8-24T02:05:52Z
2021-08-24T00:07:36Z,42.805,6.029,13.3045,4.60039,2470.264,2021-8-24T02:08:55Z
2021-08-24T00:10:39Z,42.805,6.029,13.3018,4.60039,2470.287,2021-8-24T02:11:58Z
2021-08-24T00:13:42Z,42.805,6.029,13.3024,4.60045,2470.31,2021-8-24T02:15:01Z
2021-08-24T00:16:45Z,42.805,6.029,13.3004,4.60049,2470.26,2021-8-24T02:18:05Z
2021-08-24T00:19:48Z,42.805,6.029,13.2999,4.60028,2470.273,2021-8-24T02:21:08Z
2021-08-24T00:22:52Z,42.805,6.029,13.3012,4.60039,2470.287,2021-8-24T02:24:11Z
2021-08-24T00:25:55Z,42.805,6.029,13.3047,4.60026,2470.287,2021-8-24T02:27:14Z
2021-08-24T00:28:58Z,42.805,6.029,13.3014,4.60025,2470.25,2021-8-24T02:30:17Z
2021-08-24T00:32:01Z,42.805,6.029,13.3018,4.60042,2470.273,2021-8-24T02:33:20Z
2021-08-24T00:35:04Z,42.805,6.029,13.3000,4.60033,2470.287,2021-8-24T02:36:23Z
2021-08-24T00:38:07Z,42.805,6.029,13.3056,4.60044,2470.25,2021-8-24T02:39:26Z
2021-08-24T00:41:10Z,42.805,6.029,13.3047,4.60036,2470.273,2021-8-24T02:42:29Z
2021-08-24T00:44:13Z,42.805,6.029,13.3007,4.60032,2470.25,2021-8-24T02:45:33Z
2021-08-24T00:47:17Z,42.805,6.029,13.2998,4.60036,2470.25,2021-8-24T02:48:36Z
2021-08-24T00:50:20Z,42.805,6.029,13.3006,4.60036,2470.273,2021-8-24T02:51:39Z
2021-08-24T00:53:23Z,42.805,6.029,13.3013,4.60029,2470.25,2021-8-24T02:54:42Z
2021-08-24T00:56:26Z,42.805,6.029,13.2993,4.60039,2470.217,2021-8-24T02:57:45Z
2021-08-24T00:59:29Z,42.805,6.029,13.3001,4.60037,2470.203,2021-8-24T03:00:48Z
2021-08-24T01:02:32Z,42.805,6.029,13.2996,4.60014,2470.264,2021-8-24T03:03:51Z
2021-08-24T01:05:35Z,42.805,6.029,13.3020,4.60022,2470.227,2021-8-24T03:06:54Z
2021-08-24T01:08:38Z,42.805,6.029,13.3017,4.60028,2470.273,2021-8-24T03:09:58Z
2021-08-24T01:11:42Z,42.805,6.029,13.3019,4.60042,2470.227,2021-8-24T03:13:01Z
2021-08-24T01:14:45Z,42.805,6.029,13.3023,4.60051,2470.25,2021-8-24T03:16:04Z
2021-08-24T01:17:48Z,42.805,6.029,13.3015,4.60040,2470.24,2021-8-24T03:19:07Z
2021-08-24T01:20:51Z,42.805,6.029,13.2996,4.60042,2470.227,2021-8-24T03:22:10Z
2021-08-24T01:23:54Z,42.805,6.029,13.3036,4.60048,2470.264,2021-8-24T03:25:13Z
2021-08-24T01:26:57Z,42.805,6.029,13.2989,4.60048,2470.24,2021-8-24T03:28:16Z
2021-08-24T01:30:00Z,42.805,6.029,13.2990,4.60031,2470.217,2021-8-24T03:31:19Z
2021-08-24T01:33:03Z,42.805,6.029,13.3010,4.60032,2470.25,2021-8-24T03:34:23Z
2021-08-24T01:36:07Z,42.805,6.029,13.2989,4.60016,2470.227,2021-8-24T03:37:26Z
2021-08-24T01:39:10Z,42.805,6.029,13.2990,4.60023,2470.203,2021-8-24T03:40:29Z
2021-08-24T01:42:13Z,42.805,6.029,13.3019,4.60054,2470.203,2021-8-24T03:43:32Z
2021-08-24T01:45:16Z,42.805,6.029,13.3014,4.60044,2470.227,2021-8-24T03:46:35Z
2021-08-24T01:48:19Z,42.805,6.029,13.3015,4.60055,2470.203,2021-8-24T03:49:38Z
2021-08-24T01:51:22Z,42.805,6.029,13.3032,4.60032,2470.24,2021-8-24T03:52:41Z
2021-08-24T01:54:25Z,42.805,6.029,13.3031,4.60026,2470.203,2021-8-24T03:55:44Z
2021-08-24T01:57:28Z,42.805,6.029,13.2988,4.60036,2470.217,2021-8-24T03:58:48Z
2021-08-24T02:00:31Z,42.805,6.029,13.2991,4.60014,2470.227,2021-8-24T04:01:51Z
2021-08-24T02:03:35Z,42.805,6.029,13.3003,4.60011,2470.203,2021-8-24T04:04:54Z
2021-08-24T02:06:38Z,42.805,6.029,13.2986,4.60024,2470.217,2021-8-24T04:07:57Z
2021-08-24T02:09:41Z,42.805,6.029,13.3014,4.60026,2470.18,2021-8-24T04:11:00Z
2021-08-24T02:12:44Z,42.805,6.029,13.3024,4.60032,2470.203,2021-8-24T04:14:03Z
2021-08-24T02:15:47Z,42.805,6.029,13.3045,4.60039,2470.217,2021-8-24T04:17:06Z
2021-08-24T02:18:50Z,42.805,6.029,13.2991,4.60031,2470.203,2021-8-24T04:20:09Z
2021-08-24T02:21:53Z,42.805,6.029,13.2990,4.60015,2470.203,2021-8-24T04:23:13Z
2021-08-24T02:24:56Z,42.805,6.029,13.3034,4.60035,2470.156,2021-8-24T04:26:16Z
2021-08-24T02:28:00Z,42.805,6.029,13.2991,4.60018,2470.18,2021-8-24T04:29:19Z
2021-08-24T02:31:03Z,42.805,6.029,13.3019,4.60019,2470.203,2021-8-24T04:32:22Z
2021-08-24T02:34:06Z,42.805,6.029,13.2996,4.60041,2470.194,2021-8-24T04:35:25Z
2021-08-24T02:37:09Z,42.805,6.029,13.2989,4.60031,2470.18,2021-8-24T04:38:28Z
2021-08-24T02:40:12Z,42.805,6.029,13.2984,4.60014,2470.156,2021-8-24T04:41:31Z
2021-08-24T02:43:15Z,42.805,6.029,13.2986,4.60024,2470.217,2021-8-24T04:44:34Z
2021-08-24T02:46:18Z,42.805,6.029,13.2986,4.60011,2470.194,2021-8-24T04:47:38Z
2021-08-24T02:49:21Z,42.805,6.029,13.2986,4.60009,2470.18,2021-8-24T04:50:41Z
2021-08-24T02:52:25Z,42.805,6.029,13.2985,4.60011,2470.217,2021-8-24T04:53:44Z
2021-08-24T02:55:28Z,42.805,6.029,13.2986,4.60014,2470.217,2021-8-24T04:56:47Z
2021-08-24T02:58:31Z,42.805,6.029,13.2984,4.60009,2470.18,2021-8-24T04:59:50Z
2021-08-24T03:01:34Z,42.805,6.029,13.2988,4.60015,2470.194,2021-8-24T05:02:53Z
2021-08-24T03:04:37Z,42.805,6.029,13.2984,4.60021,2470.18,2021-8-24T05:05:56Z
2021-08-24T03:07:40Z,42.805,6.029,13.2986,4.60009,2470.24,2021-8-24T05:08:59Z
2021-08-24T03:10:43Z,42.805,6.029,13.2987,4.60005,2470.156,2021-8-24T05:12:02Z
2021-08-24T03:13:46Z,42.805,6.029,13.2986,4.60006,2470.171,2021-8-24T05:15:06Z
2021-08-24T03:16:49Z,42.805,6.029,13.2982,4.60007,2470.18,2021-8-24T05:18:09Z
2021-08-24T03:19:53Z,42.805,6.029,13.2984,4.60005,2470.194,2021-8-24T05:21:12Z
2021-08-24T03:22:56Z,42.805,6.029,13.2990,4.60003,2470.18,2021-8-24T05:24:15Z
2021-08-24T03:25:59Z,42.805,6.029,13.2987,4.60007,2470.18,2021-8-24T05:27:18Z
2021-08-24T03:29:02Z,42.805,6.029,13.2988,4.60005,2470.18,2021-8-24T05:30:21Z
2021-08-24T03:32:05Z,42.805,6.029,13.2986,4.60004,2470.171,2021-8-24T05:33:24Z
2021-08-24T03:35:08Z,42.805,6.029,13.2986,4.60003,2470.18,2021-8-24T05:36:27Z
2021-08-24T03:38:11Z,42.805,6.029,13.2987,4.60006,2470.18,2021-8-24T05:39:31Z
2021-08-24T03:41:14Z,42.805,6.029,13.2985,4.60004,2470.166,2021-8-24T05:42:34Z
2021-08-24T03:44:18Z,42.805,6.029,13.2985,4.60004,2470.156,2021-8-24T05:45:37Z
2021-08-24T03:47:21Z,42.805,6.029,13.2990,4.60006,2470.18,2021-8-24T05:48:40Z
2021-08-24T03:50:24Z,42.805,6.029,13.2987,4.60002,2470.156,2021-8-24T05:51:43Z
2021-08-24T03:53:27Z,42.805,6.029,13.2984,4.60007,2470.194,2021-8-24T05:54:46Z
2021-08-24T03:56:30Z,42.805,6.029,13.2987,4.60004,2470.18,2021-8-24T05:57:49Z
2021-08-24T03:59:33Z,42.805,6.029,13.2985,4.60002,2470.171,2021-8-24T06:00:52Z
2021-08-24T04:02:36Z,42.805,6.029,13.2986,4.60004,2470.171,2021-8-24T06:03:56Z
2021-08-24T04:05:39Z,42.805,6.029,13.2987,4.60006,2470.156,2021-8-24T06:06:59Z
2021-08-24T04:08:43Z,42.805,6.029,13.2988,4.60009,2470.18,2021-8-24T06:10:02Z
2021-08-24T04:11:46Z,42.805,6.029,13.2984,4.60004,2470.194,2021-8-24T06:13:05Z
2021-08-24T04:14:49Z,42.805,6.029,13.2985,4.60003,2470.18,2021-8-24T06:16:08Z
2021-08-24T04:17:52Z,42.805,6.029,13.2986,4.60000,2470.156,2021-8-24T06:19:11Z
2021-08-24T04:20:55Z,42.805,6.029,13.2982,4.60001,2470.217,2021-8-24T06:22:14Z
2021-08-24T04:23:58Z,42.805,6.029,13.2985,4.60002,2470.18,2021-8-24T06:25:17Z
2021-08-24T04:27:01Z,42.805,6.029,13.2988,4.60007,2470.156,2021-8-24T06:28:21Z
2021-08-24T04:30:04Z,42.805,6.029,13.2987,4.60004,2470.194,2021-8-24T06:31:24Z
2021-08-24T04:33:08Z,42.805,6.029,13.2983,4.60000,2470.194,2021-8-24T06:34:27Z
2021-08-24T04:36:11Z,42.805,6.029,13.2983,4.59999,2470.194,2021-8-24T06:37:30Z
2021-08-24T04:39:14Z,42.805,6.029,13.2987,4.59999,2470.18,2021-8-24T06:40:33Z
2021-08-24T04:42:17Z,42.805,6.029,13.2985,4.60005,2470.18,2021-8-24T06:43:36Z
2021-08-24T04:45:20Z,42.805,6.029,13.2983,4.60003,2470.203,2021-8-24T06:46:39Z
2021-08-24T04:48:23Z,42.805,6.029,13.2989,4.60004,2470.203,2021-8-24T06:49:42Z
2021-08-24T04:51:26Z,42.805,6.029,13.2986,4.60003,2470.18,2021-8-24T06:52:46Z
2021-08-24T04:54:29Z,42.805,6.029,13.2982,4.60003,2470.217,2021-8-24T06:55:49Z
2021-08-24T04:57:33Z,42.805,6.029,13.2988,4.60003,2470.217,2021-8-24T06:58:52Z
2021-08-24T05:00:36Z,42.805,6.029,13.2986,4.60000,2470.227,2021-8-24T07:01:55Z
2021-08-24T05:03:39Z,42.805,6.029,13.2991,4.60000,2470.227,2021-8-24T07:04:58Z
2021-08-24T05:06:42Z,42.805,6.029,13.2986,4.60003,2470.203,2021-8-24T07:08:01Z
2021-08-24T05:09:45Z,42.805,6.029,13.2986,4.60002,2470.273,2021-8-24T07:11:04Z
2021-08-24T05:12:48Z,42.805,6.029,13.2983,4.59999,2470.24,2021-8-24T07:14:07Z
2021-08-24T05:15:51Z,42.805,6.029,13.2988,4.59999,2470.25,2021-8-24T07:17:10Z
2021-08-24T05:18:54Z,42.805,6.029,13.2986,4.59999,2470.227,2021-8-24T07:20:14Z
2021-08-24T05:21:57Z,42.805,6.029,13.2986,4.60000,2470.227,2021-8-24T07:23:17Z
2021-08-24T05:25:01Z,42.805,6.029,13.2985,4.59999,2470.25,2021-8-24T07:26:20Z
2021-08-24T05:28:04Z,42.805,6.029,13.2986,4.59999,2470.227,2021-8-24T07:29:23Z
2021-08-24T05:31:07Z,42.805,6.029,13.2985,4.60001,2470.264,2021-8-24T07:32:26Z
2021-08-24T05:34:10Z,42.805,6.029,13.2983,4.60002,2470.25,2021-8-24T07:35:29Z
2021-08-24T05:37:13Z,42.805,6.029,13.2986,4.59999,2470.287,2021-8-24T07:38:32Z
2021-08-24T05:40:16Z,42.805,6.029,13.2984,4.60000,2470.273,2021-8-24T07:41:35Z
2021-08-24T05:43:19Z,42.805,6.029,13.2983,4.60000,2470.273,2021-8-24T07:44:39Z
2021-08-24T05:46:22Z,42.805,6.029,13.2989,4.60002,2470.264,2021-8-24T07:47:42Z
2021-08-24T05:49:26Z,42.805,6.029,13.2981,4.60001,2470.25,2021-8-24T07:50:45Z
2021-08-24T05:52:29Z,42.805,6.029,13.2989,4.59999,2470.273,2021-8-24T07:53:48Z
2021-08-24T05:55:32Z,42.805,6.029,13.2986,4.59999,2470.264,2021-8-24T07:56:51Z
2021-08-24T05:58:35Z,42.805,6.029,13.2983,4.59999,2470.273,2021-8-24T07:59:54Z
2021-08-24T06:01:38Z,42.805,6.029,13.2984,4.59999,2470.273,2021-8-24T08:02:57Z
2021-08-24T06:04:41Z,42.805,6.029,13.2984,4.59999,2470.273,2021-8-24T08:06:00Z
2021-08-24T06:07:44Z,42.805,6.029,13.2983,4.59998,2470.31,2021-8-24T08:09:04Z
2021-08-24T06:10:47Z,42.805,6.029,13.2987,4.60000,2470.297,2021-8-24T08:12:07Z
2021-08-24T06:13:51Z,42.805,6.029,13.2988,4.60002,2470.31,2021-8-24T08:15:10Z
2021-08-24T06:16:54Z,42.805,6.029,13.2983,4.60000,2470.31,2021-8-24T08:18:13Z
2021-08-24T06:19:57Z,42.805,6.029,13.2986,4.60001,2470.297,2021-8-24T08:21:16Z
2021-08-24T06:23:00Z,42.805,6.029,13.2988,4.60002,2470.32,2021-8-24T08:24:19Z
2021-08-24T06:26:03Z,42.805,6.029,13.2987,4.60000,2470.31,2021-8-24T08:27:22Z
2021-08-24T06:29:06Z,42.805,6.029,13.2984,4.60001,2470.334,2021-8-24T08:30:25Z
2021-08-24T06:32:09Z,42.805,6.029,13.2982,4.59999,2470.31,2021-8-24T08:33:28Z
2021-08-24T06:35:12Z,42.805,6.029,13.2990,4.59999,2470.297,2021-8-24T08:36:32Z
2021-08-24T06:38:16Z,42.805,6.029,13.2986,4.59999,2470.334,2021-8-24T08:39:35Z
2021-08-24T06:41:19Z,42.805,6.029,13.2985,4.59999,2470.32,2021-8-24T08:42:38Z
2021-08-24T06:44:22Z,42.805,6.029,13.2983,4.59998,2470.32,2021-8-24T08:45:41Z
2021-08-24T06:47:25Z,42.805,6.029,13.2984,4.60000,2470.32,2021-8-24T08:48:44Z
2021-08-24T06:50:28Z,42.805,6.029,13.2983,4.60000,2470.343,2021-8-24T08:51:47Z
2021-08-24T06:53:31Z,42.805,6.029,13.2986,4.60001,2470.31,2021-8-24T08:54:50Z
2021-08-24T06:56:34Z,42.805,6.029,13.2986,4.60002,2470.334,2021-8-24T08:57:54Z
2021-08-24T06:59:37Z,42.805,6.029,13.2986,4.60001,2470.32,2021-8-24T09:00:57Z
2021-08-24T07:02:41Z,42.805,6.029,13.2987,4.60002,2470.343,2021-8-24T09:04:00Z
2021-08-24T07:05:44Z,42.805,6.029,13.2986,4.60000,2470.357,2021-8-24T09:07:03Z
2021-08-24T07:08:47Z,42.805,6.029,13.2986,4.60004,2470.32,2021-8-24T09:10:06Z
2021-08-24T07:11:50Z,42.805,6.029,13.2989,4.60001,2470.343,2021-8-24T09:13:09Z
2021-08-24T07:14:53Z,42.805,6.029,13.2986,4.60002,2470.32,2021-8-24T09:16:12Z
2021-08-24T07:17:56Z,42.805,6.029,13.2986,4.60003,2470.343,2021-8-24T09:19:15Z
2021-08-24T07:20:59Z,42.805,6.029,13.2983,4.60003,2470.366,2021-8-24T09:22:18Z
2021-08-24T07:24:02Z,42.805,6.029,13.2984,4.60000,2470.357,2021-8-24T09:25:22Z
2021-08-24T07:27:06Z,42.805,6.029,13.2986,4.60001,2470.38,2021-8-24T09:28:25Z
2021-08-24T07:30:09Z,42.805,6.029,13.2987,4.60003,2470.343,2021-8-24T09:31:28Z
2021-08-24T07:33:12Z,42.805,6.029,13.2985,4.60000,2470.357,2021-8-24T09:34:31Z
2021-08-24T07:36:15Z,42.805,6.029,13.2982,4.60009,2470.343,2021-8-24T09:37:34Z
2021-08-24T07:39:18Z,42.805,6.029,13.2982,4.60005,2470.306,2021-8-24T09:40:37Z
2021-08-24T07:42:21Z,42.805,6.029,13.2986,4.60006,2470.366,2021-8-24T09:43:40Z
2021-08-24T07:45:24Z,42.805,6.029,13.2988,4.60007,2470.343,2021-8-24T09:46:43Z
2021-08-24T07:48:27Z,42.805,6.029,13.2987,4.60006,2470.366,2021-8-24T09:49:47Z
2021-08-24T07:51:31Z,42.805,6.029,13.2983,4.60007,2470.366,2021-8-24T09:52:50Z
2021-08-24T07:54:34Z,42.805,6.029,13.2989,4.60006,2470.39,2021-8-24T09:55:53Z
2021-08-24T07:57:37Z,42.805,6.029,13.2983,4.60011,2470.38,2021-8-24T09:58:56Z
2021-08-24T08:00:40Z,42.805,6.029,13.2986,4.60005,2470.38,2021-8-24T10:01:59Z
2021-08-24T08:03:43Z,42.805,6.029,13.2986,4.60003,2470.343,2021-8-24T10:05:02Z
2021-08-24T08:06:46Z,42.805,6.029,13.2986,4.60005,2470.366,2021-8-24T10:08:05Z
2021-08-24T08:09:49Z,42.805,6.029,13.2986,4.60008,2470.366,2021-8-24T10:11:08Z
2021-08-24T08:12:52Z,42.805,6.029,13.2987,4.60000,2470.343,2021-8-24T10:14:12Z
2021-08-24T08:15:56Z,42.805,6.029,13.2985,4.59999,2470.366,2021-8-24T10:17:15Z
2021-08-24T08:18:59Z,42.805,6.029,13.2984,4.60006,2470.38,2021-8-24T10:20:18Z
2021-08-24T08:22:02Z,42.805,6.029,13.2983,4.60003,2470.366,2021-8-24T10:23:21Z
2021-08-24T08:25:05Z,42.805,6.029,13.2986,4.60002,2470.343,2021-8-24T10:26:24Z
2021-08-24T08:28:08Z,42.805,6.029,13.2984,4.60002,2470.343,2021-8-24T10:29:27Z
2021-08-24T08:31:11Z,42.805,6.029,13.2988,4.60005,2470.38,2021-8-24T10:32:30Z
2021-08-24T08:34:14Z,42.805,6.029,13.2983,4.60003,2470.366,2021-8-24T10:35:34Z
2021-08-24T08:37:17Z,42.805,6.029,13.2986,4.59999,2470.39,2021-8-24T10:38:37Z
2021-08-24T08:40:21Z,42.805,6.029,13.2983,4.60003,2470.404,2021-8-24T10:41:40Z
2021-08-24T08:43:24Z,42.805,6.029,13.2987,4.59999,2470.343,2021-8-24T10:44:43Z
2021-08-24T08:46:27Z,42.805,6.029,13.2984,4.60001,2470.404,2021-8-24T10:47:46Z
2021-08-24T08:49:30Z,42.805,6.029,13.2984,4.60002,2470.38,2021-8-24T10:50:49Z
2021-08-24T08:52:33Z,42.805,6.029,13.2988,4.60014,2470.39,2021-8-24T10:53:52Z
2021-08-24T08:55:36Z,42.805,6.029,13.2983,4.60004,2470.38,2021-8-24T10:56:55Z
2021-08-24T08:58:39Z,42.805,6.029,13.2986,4.60011,2470.343,2021-8-24T10:59:59Z
2021-08-24T09:01:42Z,42.805,6.029,13.2986,4.60000,2470.343,2021-8-24T11:03:02Z
2021-08-24T09:04:46Z,42.805,6.029,13.2989,4.60001,2470.366,2021-8-24T11:06:05Z
2021-08-24T09:07:49Z,42.805,6.029,13.2986,4.60006,2470.38,2021-8-24T11:09:08Z
2021-08-24T09:10:52Z,42.805,6.029,13.2987,4.60006,2470.32,2021-8-24T11:12:11Z
2021-08-24T09:13:55Z,42.805,6.029,13.2985,4.60003,2470.366,2021-8-24T11:15:14Z
2021-08-24T09:16:58Z,42.805,6.029,13.2988,4.60006,2470.32,2021-8-24T11:18:17Z
2021-08-24T09:20:01Z,42.805,6.029,13.2985,4.60014,2470.357,2021-8-24T11:21:20Z
2021-08-24T09:23:04Z,42.805,6.029,13.2984,4.60011,2470.343,2021-8-24T11:24:23Z
2021-08-24T09:26:07Z,42.805,6.029,13.2984,4.60003,2470.357,2021-8-24T11:27:27Z
2021-08-24T09:29:11Z,42.805,6.029,13.2988,4.60003,2470.334,2021-8-24T11:30:30Z
2021-08-24T09:32:14Z,42.805,6.029,13.2988,4.60009,2470.343,2021-8-24T11:33:33Z
2021-08-24T09:35:17Z,42.805,6.029,13.2986,4.60025,2470.343,2021-8-24T11:36:36Z
2021-08-24T09:38:20Z,42.805,6.029,13.2990,4.60007,2470.357,2021-8-24T11:39:39Z
2021-08-24T09:41:23Z,42.805,6.029,13.2988,4.60004,2470.357,2021-8-24T11:42:42Z
2021-08-24T09:44:26Z,42.805,6.029,13.2990,4.60002,2470.343,2021-8-24T11:45:45Z
2021-08-24T09:47:29Z,42.805,6.029,13.2988,4.60014,2470.32,2021-8-24T11:48:49Z
2021-08-24T09:50:32Z,42.805,6.029,13.2985,4.60014,2470.343,2021-8-24T11:51:52Z
2021-08-24T09:53:36Z,42.805,6.029,13.2987,4.60021,2470.32,2021-8-24T11:54:55Z
2021-08-24T09:56:39Z,42.805,6.029,13.2988,4.60004,2470.31,2021-8-24T11:57:58Z
2021-08-24T09:59:42Z,42.805,6.029,13.2996,4.60007,2470.343,2021-8-24T12:01:01Z
2021-08-24T10:02:45Z,42.805,6.029,13.2990,4.60004,2470.334,2021-8-24T12:04:04Z
2021-08-24T10:05:48Z,42.805,6.029,13.2992,4.60022,2470.334,2021-8-24T12:07:07Z
2021-08-24T10:08:51Z,42.805,6.029,13.2990,4.60014,2470.31,2021-8-24T12:10:10Z
2021-08-24T10:11:54Z,42.805,6.029,13.2989,4.60011,2470.297,2021-8-24T12:13:14Z
2021-08-24T10:14:57Z,42.805,6.029,13.2988,4.60046,2470.31,2021-8-24T12:16:17Z
2021-08-24T10:18:01Z,42.805,6.029,13.2983,4.60002,2470.32,2021-8-24T12:19:20Z
2021-08-24T10:21:04Z,42.805,6.029,13.2984,4.60000,2470.32,2021-8-24T12:22:23Z
2021-08-24T10:24:07Z,42.805,6.029,13.2985,4.60001,2470.32,2021-8-24T12:25:26Z
2021-08-24T10:27:10Z,42.805,6.029,13.2986,4.60011,2470.31,2021-8-24T12:28:29Z
2021-08-24T10:30:13Z,42.805,6.029,13.2987,4.60006,2470.32,2021-8-24T12:31:32Z
2021-08-24T10:33:16Z,42.805,6.029,13.2990,4.60022,2470.297,2021-8-24T12:34:36Z
2021-08-24T10:36:19Z,42.805,6.029,13.2984,4.60016,2470.31,2021-8-24T12:37:39Z
2021-08-24T10:39:23Z,42.805,6.029,13.2985,4.60002,2470.32,2021-8-24T12:40:42Z
2021-08-24T10:42:26Z,42.805,6.029,13.2983,4.60003,2470.273,2021-8-24T12:43:45Z
2021-08-24T10:45:29Z,42.805,6.029,13.2982,4.59996,2470.297,2021-8-24T12:46:48Z
2021-08-24T10:48:32Z,42.805,6.029,13.2983,4.59996,2470.297,2021-8-24T12:49:51Z
2021-08-24T10:51:35Z,42.805,6.029,13.2988,4.59996,2470.287,2021-8-24T12:52:54Z
2021-08-24T10:54:38Z,42.805,6.029,13.2990,4.59996,2470.32,2021-8-24T12:55:57Z
2021-08-24T10:57:41Z,42.805,6.029,13.2983,4.60000,2470.264,2021-8-24T12:59:01Z
2021-08-24T11:00:44Z,42.805,6.029,13.2983,4.60003,2470.31,2021-8-24T13:02:04Z
2021-08-24T11:03:48Z,42.805,6.029,13.2990,4.60009,2470.31,2021-8-24T13:05:07Z
2021-08-24T11:06:51Z,42.805,6.029,13.2985,4.60021,2470.273,2021-8-24T13:08:10Z
2021-08-24T11:09:54Z,42.805,6.029,13.2981,4.60035,2470.25,2021-8-24T13:11:13Z
2021-08-24T11:12:57Z,42.805,6.029,13.2986,4.60050,2470.227,2021-8-24T13:14:16Z
2021-08-24T11:16:00Z,42.805,6.029,13.2986,4.60020,2470.273,2021-8-24T13:17:19Z
2021-08-24T11:19:03Z,42.805,6.029,13.2986,4.60035,2470.25,2021-8-24T13:20:22Z
2021-08-24T11:22:06Z,42.805,6.029,13.2985,4.60019,2470.31,2021-8-24T13:23:26Z
2021-08-24T11:25:09Z,42.805,6.029,13.2990,4.60019,2470.273,2021-8-24T13:26:29Z
2021-08-24T11:28:13Z,42.805,6.029,13.2989,4.60072,2470.287,2021-8-24T13:29:32Z
2021-08-24T11:31:16Z,42.805,6.029,13.2990,4.60089,2470.227,2021-8-24T13:32:35Z
2021-08-24T11:34:19Z,42.805,6.029,13.2997,4.60077,2470.273,2021-8-24T13:35:38Z
2021-08-24T11:37:22Z,42.805,6.029,13.2990,4.60063,2470.24,2021-8-24T13:38:41Z
2021-08-24T11:40:25Z,42.805,6.029,13.3017,4.60045,2470.273,2021-8-24T13:41:44Z
2021-08-24T11:43:28Z,42.805,6.029,13.3017,4.60033,2470.25,2021-8-24T13:44:47Z
2021-08-24T11:46:31Z,42.805,6.029,13.2998,4.60054,2470.227,2021-8-24T13:47:51Z
2021-08-24T11:49:34Z,42.805,6.029,13.3008,4.60086,2470.24,2021-8-24T13:50:54Z
2021-08-24T11:52:38Z,42.805,6.029,13.3024,4.60067,2470.227,2021-8-24T13:53:57Z
2021-08-24T11:55:41Z,42.805,6.029,13.3041,4.60046,2470.25,2021-8-24T13:57:00Z
2021-08-24T11:58:44Z,42.805,6.029,13.3048,4.60072,2470.25,2021-8-24T14:00:03Z
2021-08-24T12:01:47Z,42.805,6.029,13.3054,4.60073,2470.24,2021-8-24T14:03:06Z
2021-08-24T12:04:50Z,42.805,6.029,13.3062,4.60044,2470.25,2021-8-24T14:06:09Z
2021-08-24T12:07:53Z,42.805,6.029,13.3063,4.60041,2470.227,2021-8-24T14:09:12Z
2021-08-24T12:10:56Z,42.805,6.029,13.3070,4.60037,2470.24,2021-8-24T14:12:16Z
2021-08-24T12:13:59Z,42.805,6.029,13.3078,4.60044,2470.264,2021-8-24T14:15:19Z
2021-08-24T12:17:03Z,42.805,6.029,13.3067,4.60029,2470.194,2021-8-24T14:18:22Z
2021-08-24T12:20:06Z,42.805,6.029,13.3072,4.60043,2470.217,2021-8-24T14:21:25Z
2021-08-24T12:23:09Z,42.805,6.029,13.3045,4.60062,2470.24,2021-8-24T14:24:28Z
2021-08-24T12:26:12Z,42.805,6.029,13.3060,4.60049,2470.217,2021-8-24T14:27:31Z
2021-08-24T12:29:15Z,42.805,6.029,13.3067,4.60025,2470.203,2021-8-24T14:30:34Z
2021-08-24T12:32:18Z,42.805,6.029,13.3070,4.60030,2470.227,2021-8-24T14:33:37Z
2021-08-24T12:35:21Z,42.805,6.029,13.3043,4.60058,2470.217,2021-8-24T14:36:41Z
2021-08-24T12:38:24Z,42.805,6.029,13.3061,4.60030,2470.24,2021-8-24T14:39:44Z
2021-08-24T12:41:28Z,42.805,6.029,13.3047,4.60046,2470.264,2021-8-24T14:42:47Z
2021-08-24T12:44:31Z,42.805,6.029,13.3031,4.60059,2470.227,2021-8-24T14:45:50Z
2021-08-24T12:47:34Z,42.805,6.029,13.3019,4.60036,2470.203,2021-8-24T14:48:53Z
2021-08-24T12:50:37Z,42.805,6.029,13.3000,4.60033,2470.227,2021-8-24T14:51:56Z
2021-08-24T12:53:40Z,42.805,6.029,13.3048,4.60018,2470.217,2021-8-24T14:54:59Z
2021-08-24T12:56:43Z,42.805,6.029,13.3037,4.60027,2470.25,2021-8-24T14:58:03Z
2021-08-24T12:59:46Z,42.805,6.029,13.3004,4.60024,2470.203,2021-8-24T15:01:06Z
2021-08-24T13:02:50Z,42.805,6.029,13.3029,4.60033,2470.203,2021-8-24T15:04:09Z
2021-08-24T13:05:53Z,42.805,6.029,13.3027,4.60039,2470.227,2021-8-24T15:07:12Z
2021-08-24T13:08:56Z,42.805,6.029,13.3023,4.60041,2470.203,2021-8-24T15:10:15Z
2021-08-24T13:11:59Z,42.805,6.029,13.3018,4.60038,2470.227,2021-8-24T15:13:18Z
2021-08-24T13:15:02Z,42.805,6.029,13.3017,4.60037,2470.24,2021-8-24T15:16:21Z
2021-08-24T13:18:05Z,42.805,6.029,13.3045,4.60045,2470.18,2021-8-24T15:19:24Z
2021-08-24T13:21:08Z,42.805,6.029,13.3037,4.60040,2470.217,2021-8-24T15:22:28Z
2021-08-24T13:24:11Z,42.805,6.029,13.3050,4.60039,2470.217,2021-8-24T15:25:31Z
2021-08-24T13:27:15Z,42.805,6.029,13.3029,4.60039,2470.217,2021-8-24T15:28:34Z
2021-08-24T13:30:18Z,42.805,6.029,13.3037,4.60022,2470.194,2021-8-24T15:31:37Z
2021-08-24T13:33:21Z,42.805,6.029,13.3025,4.60045,2470.217,2021-8-24T15:34:40Z
2021-08-24T13:36:24Z,42.805,6.029,13.3031,4.60037,2470.217,2021-8-24T15:37:43Z
2021-08-24T13:39:27Z,42.805,6.029,13.3029,4.60038,2470.203,2021-8-24T15:40:46Z
2021-08-24T13:42:30Z,42.805,6.029,13.3018,4.60026,2470.203,2021-8-24T15:43:49Z
2021-08-24T13:45:33Z,42.805,6.029,13.3015,4.60029,2470.217,2021-8-24T15:46:53Z
2021-08-24T13:48:36Z,42.805,6.029,13.3025,4.60024,2470.203,2021-8-24T15:49:56Z
2021-08-24T13:51:40Z,42.805,6.029,13.3021,4.60020,2470.156,2021-8-24T15:52:59Z
2021-08-24T13:54:43Z,42.805,6.029,13.3014,4.60024,2470.18,2021-8-24T15:56:02Z
2021-08-24T13:57:46Z,42.805,6.029,13.3032,4.60024,2470.156,2021-8-24T15:59:05Z
2021-08-24T14:00:49Z,42.805,6.029,13.3019,4.60026,2470.18,2021-8-24T16:02:08Z
2021-08-24T14:03:52Z,42.805,6.029,13.3016,4.60024,2470.217,2021-8-24T16:05:11Z
2021-08-24T14:06:55Z,42.805,6.029,13.3016,4.60038,2470.194,2021-8-24T16:08:14Z
2021-08-24T14:09:58Z,42.805,6.029,13.3016,4.60029,2470.194,2021-8-24T16:11:18Z
2021-08-24T14:13:01Z,42.805,6.029,13.3012,4.60029,2470.194,2021-8-24T16:14:21Z
2021-08-24T14:16:05Z,42.805,6.029,13.3019,4.60026,2470.203,2021-8-24T16:17:24Z
2021-08-24T14:19:08Z,42.805,6.029,13.3009,4.60021,2470.203,2021-8-24T16:20:27Z
2021-08-24T14:22:11Z,42.805,6.029,13.3017,4.60021,2470.18,2021-8-24T16:23:30Z
2021-08-24T14:25:14Z,42.805,6.029,13.3015,4.60031,2470.194,2021-8-24T16:26:33Z
2021-08-24T14:28:17Z,42.805,6.029,13.3008,4.60014,2470.18,2021-8-24T16:29:36Z
2021-08-24T14:31:20Z,42.805,6.029,13.3026,4.60020,2470.194,2021-8-24T16:32:39Z
2021-08-24T14:34:23Z,42.805,6.029,13.3017,4.60019,2470.217,2021-8-24T16:35:43Z
2021-08-24T14:37:27Z,42.805,6.029,13.3024,4.60026,2470.18,2021-8-24T16:38:46Z
2021-08-24T14:40:30Z,42.805,6.029,13.3022,4.60021,2470.194,2021-8-24T16:41:49Z
2021-08-24T14:43:33Z,42.805,6.029,13.3005,4.60024,2470.194,2021-8-24T16:44:52Z
2021-08-24T14:46:36Z,42.805,6.029,13.3032,4.60027,2470.194,2021-8-24T16:47:55Z
2021-08-24T14:49:39Z,42.805,6.029,13.3019,4.60031,2470.18,2021-8-24T16:50:58Z
2021-08-24T14:52:42Z,42.805,6.029,13.3030,4.60021,2470.171,2021-8-24T16:54:01Z
2021-08-24T14:55:45Z,42.805,6.029,13.3027,4.60022,2470.194,2021-8-24T16:57:05Z
2021-08-24T14:58:48Z,42.805,6.029,13.3016,4.60019,2470.156,2021-8-24T17:00:08Z
2021-08-24T15:01:52Z,42.805,6.029,13.3014,4.60025,2470.217,2021-8-24T17:03:11Z
2021-08-24T15:04:55Z,42.805,6.029,13.3016,4.60029,2470.156,2021-8-24T17:06:14Z
2021-08-24T15:07:58Z,42.805,6.029,13.3018,4.60031,2470.171,2021-8-24T17:09:17Z
2021-08-24T15:11:01Z,42.805,6.029,13.3015,4.60035,2470.18,2021-8-24T17:12:20Z
2021-08-24T15:14:04Z,42.805,6.029,13.3014,4.60033,2470.203,2021-8-24T17:15:23Z